Flag for Hungary Weather past 2 weeks in Sopron, Hungary

Now
44 °F

Overcast.


Feels Like: 41 °F
Forecast: 44 / 51 °F
Wind: 6 mph from Northwest

Location: Eisenstadt

Current Time: Oct 23, 2014 at 7:26:31 AM

Latest Report: Oct 23, 2014 at 6:00 AM


Visibility: 6 mi

Pressure: 29.72 "Hg

Humidity: 83%

Dew point: 39 °F

Location of SopronLocation

Historic Weather in Sopron — Graph

°F

Sopron temperature yesterday

Maximum temperature yesterday: 57 °F (at 12:00 AM)
Minimum temperature yesterday: 45 °F (at 9:00 PM)
Average temperature yesterday: 49 °F

Past Weeks' High & Low Weather Summary

 TemperatureHumidityPressure
High75 °F (Oct 9, 5:00 PM)100% (Oct 11, 8:00 AM)30.32 "Hg (Oct 11, 8:00 AM)
Low43 °F (Oct 23, 5:00 AM)52% (Oct 14, 3:00 PM)29.61 "Hg (Oct 22, 1:00 AM)
Average59 °F84%29.93 "Hg
* Reported Oct 8 6:00 AM — Oct 23 6:00 AM, Sopron, Weather by CustomWeather, © 2014

Note: Actual official high and low records may vary slightly from our data, if they occured in-between our weather recording intervals... More about our weather records

Advertising

Sopron weather history for previous 24 hours

 ConditionsComfort  
Time TempWeatherWind HumidityBarometerVisibility
6:00 AM
Oct 23
44 °FOvercast.6 mph83%29.72 "Hg6 mi
5:00 AM43 °FLight rain. Overcast.5 mph84%29.72 "Hg6 mi
4:00 AM44 °FSprinkles. Overcast.5 mph80%29.73 "Hg6 mi
3:00 AM45 °FQuite cool.5 mph74%29.74 "HgN/A
2:00 AM45 °FOvercast.6 mph74%29.72 "Hg6 mi
1:00 AM45 °FCool.7 mph74%29.73 "HgN/A
12:00 AM45 °FCool.8 mph75%29.73 "HgN/A
11:00 PM
Oct 22
45 °FOvercast.8 mph73%29.73 "Hg7 mi
10:00 PM45 °FCool.7 mph74%29.75 "HgN/A
9:00 PM45 °FCool.9 mph75%29.74 "HgN/A
8:00 PM46 °FDrizzle. Overcast.8 mph77%29.73 "Hg9 mi
7:00 PM46 °FDrizzle. Overcast.7 mph80%29.75 "Hg9 mi
6:00 PM47 °FCool.8 mph71%29.73 "HgN/A
5:00 PM47 °FCool.7 mph67%29.74 "HgN/A
4:00 PM47 °FCool.9 mph69%29.73 "HgN/A
3:00 PM49 °FCool.10 mph64%29.71 "HgN/A
2:00 PM50 °FOvercast.12 mph65%29.69 "Hg9 mi
1:00 PM51 °FCool.7 mph62%29.71 "HgN/A
12:00 PM49 °FCool.8 mph66%29.73 "HgN/A
11:00 AM49 °FOvercast.7 mph64%29.72 "Hg6 mi
10:00 AM49 °FCool.8 mph63%29.72 "HgN/A
9:00 AM49 °FCool.7 mph63%29.72 "HgN/A
8:00 AM50 °FOvercast.9 mph62%29.72 "Hg6 mi
7:00 AM50 °FOvercast.10 mph62%29.69 "Hg6 mi
Weather by CustomWeather, © 2014

See weather overviewHow to use our weather pages